OpenBCM V1.13 (Linux)

Packet Radio Mailbox

DB0FHN

[JN59NK Nuernberg]

 Login: GUEST





  
F1EBE  > KEPLER   19.02.03 20:16l 120 Lines 6320 Bytes #999 (0) @ EU
BID : 22316_F8KOH
Read: DB0FHN GUEST
Subj: 2L Satell Meteo  049.day
Path: DB0FHN<DB0RGB<OK0PPL<RZ6HXA<LX0PAC<F6KIF<F1HCI<F6KDS<F5KCK<F8KAE<
      F8KOH
Sent: 030219/0943Z @:F8KOH.FNOR.FRA.EU #:22316 [Vernon] FBB7.00i $:22316_F8KOH
From: F1EBE@F8KOH.FNOR.FRA.EU
To  : KEPLER@EU


GOES 2                  
1 10061U 77048A   03041.64344854 -.00000146  00000-0  00000+0 0   846
2 10061  14.1321  13.4869 0012973 199.7553 160.2330  0.99401033 38751
GOES 6                  
1 14050U 83041A   03048.05134892  .00000041  00000-0  10000-3 0  4245
2 14050  10.4035  35.5570 0004045 342.0560  17.9911  1.00302445130622
GOES 7                  
1 17561U 87022A   03048.62060979  .00000046  00000-0  10000-3 0  8558
2 17561   7.5984  55.5542 0005433 262.3589 233.9782  1.00252868 41732
INSAT 1D                
1 20643U 90051A   03046.65150885 -.00000061  00000-0  10000-3 0  8880
2 20643   4.1929  80.8990 0014157 324.1080  46.5040  1.00285164 33295
FENGYUN 1B              
1 20788U 90081A   03048.96286941 -.00000037  00000-0  51095-5 0  8897
2 20788  99.0262  31.1473 0015175 231.3143 128.6664 14.02134322637450
METEOSAT 5 (MOP 2)      
1 21140U 91015B   03047.68262738  .00000019  00000-0  10000-3 0  7239
2 21140   5.6248  69.9570 0002249 156.5628 228.2831  1.00273744 46038
NOAA 12                 
1 21263U 91032A   03048.92197789  .00000440  00000-0  20594-3 0  9795
2 21263  98.6262  38.5599 0013554  26.7722 333.4154 14.25082044611126
METEOR 3-5              
1 21655U 91056A   03048.99044729  .00000051  00000-0  10000-3 0  6693
2 21655  82.5547  39.2671 0012670 196.2641 163.8076 13.16980626553405
INSAT 2A                
1 22027U 92041A   03047.85832658 -.00000147  00000-0  10000-3 0  5485
2 22027   4.6078  78.0176 0004834 317.4691  42.7079  1.00225628 38667
INSAT 2B                
1 22724U 93048B   03047.84400685 -.00000357  00000-0  10000-3 0  3275
2 22724   2.1118  90.4418 0002029 257.5971 213.6395  1.00267641 35382
METEOR 2-21             
1 22782U 93055A   03048.81139257  .00000167  00000-0  13839-3 0  5216
2 22782  82.5451 215.4934 0022247 351.8167   8.2620 13.83532809477989
METEOSAT 6              
1 22912U 93073B   03041.98342015  .00000074  00000-0  00000+0 0  6759
2 22912   2.6574  82.5051 0000882 234.1423 187.7120  1.00280377 32223
GOES 8                  
1 23051U 94022A   03047.42564015 -.00000251  00000-0  00000-0 0  6108
2 23051   0.2917 103.1863 0001019 305.3995 175.8186  1.00278070 39787
ELEKTRO                 
1 23327U 94069A   03038.63963039 -.00000011  00000-0  10000-3 0  7342
2 23327   5.2471  74.8250 0004555 156.0407 204.0912  1.00258886 30331
NOAA 14                 
1 23455U 94089A   03048.97858774  .00000201  00000-0  13245-3 0  5334
2 23455  99.1868  67.5326 0008600 230.0536 129.9879 14.13297818419399
GMS 5                   
1 23522U 95011B   03048.45211223 -.00000283  00000-0  00000-0 0  1081
2 23522   1.7541  83.3394 0000583  84.6397 281.8897  1.00279108 28884
GOES 9                  
1 23581U 95025A   03049.39266914  .00000122  00000-0  00000+0 0  5200
2 23581   0.2745 277.5541 0011885 253.0852 322.1520  1.00057707 28369
INSAT 2C                
1 23731U 95067B   03045.86692701  .00000126  00000-0  10000-3 0  8794
2 23731   0.7787 106.6643 0002153  59.0054 338.8814  1.00275462 26355
GOES 10                 
1 24786U 97019A   03048.34605499  .00000086  00000-0  00000-0 0  5493
2 24786   0.1361 105.8451 0001902 245.7484 145.0324  1.00259415 21324
FENGYUN 2A              
1 24834U 97029A   03048.63821909 -.00000197  00000-0  00000-0 0  9618
2 24834   2.5683  88.4479 0001309 219.4769 154.6609  1.00282677 20835
ORBVIEW 2 (SEASTAR)     
1 24883U 97037A   03049.19100373  .00000687  00000-0  15555-3 0   414
2 24883  98.2182 150.1373 0001500 162.7681 197.3569 14.59191756295299
METEOSAT 7              
1 24932U 97049B   03048.13461807 -.00000001  00000-0  00000-0 0  2506
2 24932   0.2105  62.2933 0001311 254.2656 239.0700  1.00279415 20003
NOAA 15                 
1 25338U 98030A   03048.96598599  .00000255  00000-0  12906-3 0   170
2 25338  98.5500  71.1326 0010169 323.6957  36.3532 14.24245201247710
RESURS O1-N4            
1 25394U 98043A   03048.93321164  .00000175  00000-0  95335-4 0  4730
2 25394  98.6312 126.8737 0002350 103.0680 257.0760 14.23878131239443
INSAT 2E                
1 25666U 99016A   03046.61884483 -.00000164  00000-0  10000-3 0  6347
2 25666   0.0212 153.4185 0002550 209.8300  87.7217  1.00271426 14317
FENGYUN 1C              
1 25730U 99025A   03048.94435748  .00000089  00000-0  71884-4 0  7741
2 25730  98.6341  73.3680 0014421   8.3608 351.7802 14.11734772194540
QUIKSCAT                
1 25789U 99034A   03048.93526518  .00000124  00000-0  69453-4 0  7424
2 25789  98.6319 236.0073 0000802 113.4208 246.7063 14.26582094190895
INSAT 3B                
1 26108U 00016B   03046.65537303 -.00000164  00000-0  10000-3 0  3911
2 26108   0.0198 119.3901 0007217 208.7019 136.0424  1.00271701 10656
GOES 11                 
1 26352U 00022A   03048.36485669 -.00000037  00000-0  10000-3 0   271
2 26352   0.1362 103.6629 0003346 225.0405 196.1692  1.00265269 10223
FENGYUN 2B              
1 26382U 00032A   03048.60410181 -.00000334  00000-0  00000-0 0  7968
2 26382   0.5757 287.7861 0001383 219.9433 321.3092  1.00276927  9702
NOAA 16                 
1 26536U 00055A   03048.73149241 -.00000014  00000-0  16820-4 0  2112
2 26536  98.9030 357.0211 0010041 311.7392  48.2878 14.11903466124036
GOES 12                 
1 26871U 01031A   03049.20776036 -.00000170  00000-0  10000-3 0  8246
2 26871   0.3264 276.6239 0003385   7.6323 203.6994  1.00361878  5839
METEOR-3M               
1 27001U 01056A   03048.93538220  .00000138  00000-0  21472-3 0  2016
2 27001  99.5915 287.0412 0013582 252.6382 107.3277 13.68198711 59388
INSAT 3C                
1 27298U 02002A   03047.71255682 -.00000080  00000-0  00000-0 0  2219
2 27298   0.0499 123.9871 0002269  92.7035 260.1196  1.00271954  3926
FENGYUN 1D              
1 27431U 02024B   03048.95560864  .00000107  00000-0  86138-4 0  2219
2 27431  98.7702  97.9544 0016068 124.6045 235.6644 14.09179456 39281
NOAA 17                 
1 27453U 02032A   03048.93292846  .00000309  00000-0  15600-3 0  3122
2 27453  98.7591 120.1491 0011949   3.0045 357.1202 14.23293654 33876
MSG-1                   
1 27509U 02040B   03046.89921297 -.00000087  00000-0  00000+0 0  1143
2 27509   1.6753 302.6443 0001119  96.7333  59.2029  1.00272388  1809
METSAT 1                
1 27525U 02043A   03046.69372512 -.00000077  00000-0  00000-0 0   961
2 27525   0.1185 259.2276 0007967   6.1771 203.5735  1.00272227  1607



Read previous mail | Read next mail


 11.09.2026 13:09:02lGo back Go up